GPS BIIF-10 (40730 NORAD) Tracking and Keplerian Element Data

This shows tracking and keplerian element data for the satellite.

Feedback or suggestion? Click here.




ElementValue
Catalog40730
NameGPS BIIF-10
Epoch Orbit5272
Epoch Day269.5972969
Epoch Year2022
RAAN322.6027
Inclination55.1214
Eccentricity0.0075028
Argument of Perigee7.5448
Mean Anonmoly352.6432
Mean Motion2.00573013
Decay Rate-3.7E-07
L11 40730U 15033A 22269.59729690 -.00000037 00000+0 00000+0 0 9993
L22 40730 55.1214 322.6027 0075028 7.5448 352.6432 2.00573013 52728

Live tracking and technical data element details for GPS BIIF-10 (NORAD 40730). GPS BIIF-10 can be tracked NOW for your location showing map with azimuth and elevation plus other details from your city location.

Track the satellite on the map from your city or location and see movement details for azimuth, elevation, latitude, longitude, range, height, and movement on the map or in text.







IsCatalogInMostPopularTable: catalog: 40730, numindb: 721
Update: records affected: 1



GetName: 40730 GPS BIIF-10

Hit Count: updated at: Thu, 29 Sep 2022 10:09:31 GMT